{"data":{"norad_id":67048,"intl_designator":"2025-294U","name":"STARLINK-35905","alt_names":[],"object_type":"PAYLOAD","status":"ACTIVE","operator":null,"country":"US","launch_date":"2025-12-11","launch_site_code":"AFETR","launch_vehicle":null,"mission":null,"orbit_class":"UNKNOWN","rcs_meters":null,"size_class":null,"mass_kg":null,"dimensions":null,"purposes":["comms"],"wikipedia_slug":null,"has_3d_model":false,"image_url":null,"decayed_at":null,"tle_current":{"epoch":"2026-09-20T09:06:33.302304Z","epoch_age_seconds":92789,"freshness":"FRESH","line1":"1 67048U 25294U   26263.37955211  .00010571  00000+0  39314-3 0  9995","line2":"2 67048  43.0051  18.6444 0001623 262.9613  97.1055 15.27577761 44573","mean_motion":15.27577761,"eccentricity":0.0001623,"inclination_deg":43.0051,"raan_deg":18.6444,"arg_perigee_deg":262.9613,"mean_anomaly_deg":97.1055,"bstar":0.00039314,"rev_number":4457,"period_min":94.266886882232,"perigee_km":481.94222882781,"apogee_km":484.16937201083,"semimajor_km":6861.1928004193,"source":"CELESTRAK","updated_at":"2026-09-21T09:00:36.094818Z"}}}